Tracking 25648 objects as of 17-May-2022
HD Live streaming from Space Station
objects crossing your sky now

CZ-3A DEB

Track CZ-3A DEB now!


NORAD ID: 40813
Int'l Code: 2007-003AS
Perigee: 552.9 km
Apogee: 46,035.5 km
Inclination: 26.8 °
Period: 847.5 minutes
Semi major axis: 29665 km
RCS: Unknown
Launch date: February 2, 2007
Source: People's Republic of China (PRC)
Launch site: Xichang Space Center, China (XSC)

Note: This is SATELLITE DEBRIS
aabbcc
Your satellite tracking list
Your tracking list is empty




NASA's NSSDC Master Catalog

Two Line Element Set (TLE):
1 40813U 07003AS  22133.89228293  .00000351  00000-0  60830-2 0  9998
2 40813  26.8070  72.2537 7665994 296.6109   6.7362  1.69915198 58877
Source of the keplerian elements: AFSPC